Regional Weather Roundup
Issued by NWS

Home | Current Version | Previous Version | Graphics & Text | Print | Product List | Glossary On
Versions: 1 2 3 4 5 6 7 8 9 10 11 12 13 14 15 16 17 18 19 20 21 22 23 24 25 26 27 28 29 30 31 32 33 34 35 36 37 38 39 40 41 42 43 44 45 46 47 48 49 50
000
ASUS45 KABQ 181301
RWRNM
NEW MEXICO REGIONAL WEATHER ROUNDUP
NATIONAL WEATHER SERVICE ALBUQUERQUE NM
700 AM MDT MON SEP 18 2017

NOTE: "FAIR" MEANS FEW OR NO CLOUDS BELOW 12,000 FEET AGL WITH NO
       SIGNIFICANT WEATHER OR OBSTRUCTIONS TO VISION.

      THIS PRODUCT IS RELEASED AS TWO VERSIONS.  ONE VERSION NEAR
      THE TOP OF THE HOUR CONTAINING PRELIMINARY DATA FROM ALBUQUERQUE
      AND OTHER STATIONS.  A FINAL VERSION WITH ADDITIONAL DATA IS
      ISSUED ABOUT 10 MINUTES AFTER THE HOUR.

NMZ501-503-504-510>518-181400-
NORTHWEST PLATEAU/NORTHCENTRAL MOUNTAINS

CITY           SKY/WX    TMP DP  RH WIND       PRES   REMARKS
FARMINGTON     FAIR      46  44  93 E8        30.14S
LOS ALAMOS     FAIR      52  38  58 NE3       30.27R
SANTA FE       FAIR      49  43  80 N12       30.21R
TAOS           FAIR      40  37  89 E7        30.29R
ANGEL FIRE     FAIR      29  28  95 CALM      30.33R

$$
NMZ402-403-502-505>509-181400-
WESTCENTRAL MOUNTAINS/SOUTHWEST MOUNTAINS

CITY           SKY/WX    TMP DP  RH WIND       PRES   REMARKS
GALLUP         FAIR      41  26  55 NE6       30.23R
GRANTS         FAIR      42  32  68 W5        30.26S
SILVER CITY    FAIR      50  37  61 N8        30.17R

$$
NMZ407-409-411-412-181400-
SOUTHERN DESERTS

CITY           SKY/WX    TMP DP  RH WIND       PRES   REMARKS
DEMING         FAIR      57  46  66 W6        30.12R
LAS CRUCES     FAIR      62  50  64 NW5       30.11R
HOLLOMAN AFB   FAIR      67  49  52 S8        30.09R
ALAMOGORDO     FAIR      66  46  48 S5        30.08R
T OR C         FAIR      61  38  42 NW5       30.12R

$$
NMZ519>523-181400-
CENTRAL VALLEYS/CENTRAL HIGHLANDS

CITY           SKY/WX    TMP DP  RH WIND       PRES   REMARKS
ALBUQUERQUE    FAIR      58  42  55 NW5       30.17R
DOUBLE EAGLE   PTCLDY    46  34  61 VRB5      30.19S
CLINES CORNERS FAIR      55  33  43 NW8       30.24S
BELEN          FAIR      55  32  42 CALM      30.16S
SOCORRO        FAIR      55  37  51 W3        30.14R

$$
NMZ524>526-539-540-181400-
SOUTHCENTRAL MOUNTAINS

CITY           SKY/WX    TMP DP  RH WIND       PRES   REMARKS
RUIDOSO        NOT AVBL

$$
NMZ527>531-181400-
NORTHEAST HIGHLANDS/NORTHEAST PLAINS

CITY           SKY/WX    TMP DP  RH WIND       PRES   REMARKS
LAS VEGAS      FAIR      41  39  93 N5        30.23R
RATON          MOCLDY    52  51  97 N3        30.19R
CLAYTON        CLOUDY    56  56 100 SW12      30.13S FOG

$$
NMZ532>537-181400-
EASTCENTRAL PLAINS

CITY           SKY/WX    TMP DP  RH WIND       PRES   REMARKS
SANTA ROSA     FAIR      52  49  90 N3        30.13R
TUCUMCARI      FAIR      55  54  96 CALM      30.08R
CANNON AFB     FAIR      57  57 100 NE5       30.13R FOG
CLOVIS AIRPORT FAIR      57  57 100 CALM      30.12S FOG

$$
NMZ028-029-538-181400-
SOUTHEAST PLAINS

CITY           SKY/WX    TMP DP  RH WIND       PRES   REMARKS
ROSWELL        FAIR      60  56  86 N5        30.05R
ARTESIA        FAIR      61  52  72 SW3       30.05R
CARLSBAD       FAIR      65  55  70 S3        30.02R
HOBBS          CLEAR     63  59  88 S7        30.06R


$$




USA.gov is the U.S. government's official web portal to all federal, state and local government web resources and services.